Regional Weather Roundup
Issued by NWS

Home | Current Version | Previous Version | Graphics & Text | Print | Product List | Glossary On
Versions: 1 2 3 4 5 6 7 8 9 10 11 12 13 14 15 16 17 18 19 20 21 22 23 24 25 26 27 28 29 30 31 32 33 34 35 36 37 38 39 40 41 42 43 44 45 46 47 48 49 50
000
ASUS45 KSLC 261010
RWRUT

UTAH REGIONAL WEATHER ROUNDUP
NATIONAL WEATHER SERVICE SALT LAKE CITY UT
400 AM MDT SAT JUL 26 2014

UTZ001>011-023>025-261100-

NORTHERN UTAH

CITY           SKY/WX    TMP DP  RH WIND       PRES   REMARKS
HILL AFB       CLEAR     72  35  26 SE10      30.08R
LOGAN          CLEAR     57  44  62 CALM      30.10S
OGDEN          CLEAR     68  39  34 W3        30.05R
PROVO AIRPORT  MOCLDY    70  48  46 CALM      30.08S
SALT LAKE CITY PTCLDY    69  46  43 W3        30.03S
VERNAL         MOCLDY    67  48  50 CALM      30.11S
WENDOVER       CLEAR     72  30  21 CALM      30.07S
HEBER CITY     MOCLDY    59  46  63 CALM      30.16R
WEST JORDAN    CLEAR     72  46  40 NW5       30.08R

$$

UTZ012>022-026-027-261100-

SOUTHERN UTAH

CITY           SKY/WX    TMP DP  RH WIND       PRES   REMARKS
BRYCE CANYON   MOCLDY    51  45  79 S3        30.36S
CEDAR CITY     CLOUDY    70  48  45 S6        30.18S
MILFORD        PTCLDY    71  49  45 S10       30.12R
MOAB/CYNLANDS  CLEAR     77  46  33 NW8       30.05S
PRICE          CLOUDY    68  47  46 NE7       30.17F
ST GEORGE      PTSUNNY   82  52  34 SE9       30.00S
KANAB            N/A     66  52  59 E5        30.19F

$$

REGIONAL REPORTS     COLORADO/ARIZONA

CITY           SKY/WX    TMP DP  RH WIND       PRES   REMARKS
CRAIG, CO      MOCLDY    59  51  75 E6        30.21S
GRAND JUNCTION MOCLDY    65  54  67 E3        30.10S
RIFLE          MOCLDY    65  50  58 SE5       30.18F
MONTROSE       MOCLDY    67  51  56 SE10      30.21S
CORTEZ         CLEAR     59  47  64 E5        30.20S
PAGE, AZ       CLOUDY    81  49  32 E3        30.10S
GRAND CANYON   CLOUDY    64  49  57 SE3       30.30F
KINGMAN        CLOUDY    71  64  78 E3        30.03F
FLAGSTAFF      CLOUDY    62  46  55 CALM      30.34F

$$

REGIONAL REPORTS    NEVADA/IDAHO/WYOMING

CITY           SKY/WX    TMP DP  RH WIND       PRES   REMARKS
LAS VEGAS, NV  MOCLDY    90  57  32 S14       29.87S
ELY            CLEAR     64  36  35 W8        30.21R
ELKO           CLEAR     56  28  34 CALM      30.16R
POCATELLO, ID  CLEAR     61  28  28 CALM      30.12R
BURLEY         CLEAR     52  37  56 SW6       30.11R
EVANSTON, WY   PTCLDY    60  31  33 N5        30.27S
ROCK SPRINGS   MOCLDY    62  24  23 S5        30.23S

$$


USA.gov is the U.S. government's official web portal to all federal, state and local government web resources and services.